This is the latest recevied weather packets stored in our database for station/object OE6PWE-13. If no packets are shown the sender has not sent any weather packets the latest 10 day(s).
| Time | Temp. | Humidity | Pressure | Rain* | Wind** | Luminosity | Snow |
|---|---|---|---|---|---|---|---|
| 1788038111 | 16.11° C | 91% | 1017 hPa | 0 mm | - | - | - |
| 1788037221 | 16.11° C | 89% | 1017 hPa | 0 mm | - | - | - |
| 1788036312 | 16.11° C | 89% | 1017 hPa | 0 mm | - | - | - |
| 1788035412 | 16.67° C | 88% | 1017 hPa | 0 mm | - | - | - |
| 1788034514 | 16.67° C | 88% | 1017 hPa | 0 mm | - | - | - |
| 1788033612 | 17.22° C | 87% | 1017 hPa | 0 mm | - | - | - |
| 1788032712 | 17.22° C | 86% | 1017 hPa | 0 mm | - | - | - |
| 1788031822 | 17.78° C | 84% | 1017 hPa | 0 mm | - | - | - |
| 1788030912 | 18.33° C | 83% | 1017 hPa | 0 mm | - | - | - |
| 1788030011 | 18.89° C | 79% | 1017 hPa | 0 mm | - | - | - |
| 1788029111 | 18.89° C | 77% | 1017 hPa | 0 mm | - | - | - |
| 1788028211 | 20° C | 79% | 1016 hPa | 0 mm | - | - | - |
| 1788027312 | 20.56° C | 73% | 1016 hPa | 0 mm | - | - | - |
| 1788026411 | 21.11° C | 69% | 1016 hPa | 0 mm | - | - | - |
| 1788025512 | 22.22° C | 68% | 1015 hPa | 0 mm | - | - | - |
| 1788024612 | 23.33° C | 64% | 1015 hPa | 0 mm | - | - | - |
| 1788023712 | 24.44° C | 61% | 1015 hPa | 0 mm | - | - | - |
| 1788022812 | 25° C | 57% | 1015 hPa | 0 mm | - | - | - |
| 1788021912 | 25.56° C | 56% | 1015 hPa | 0 mm | - | - | - |
| 1788021012 | 25.56° C | 54% | 1015 hPa | 0 mm | - | - | - |
| 1788020111 | 26.67° C | 55% | 1015 hPa | 0 mm | - | - | - |
| 1788019212 | 26.67° C | 51% | 1015 hPa | 0 mm | - | - | - |
| 1788018311 | 27.78° C | 48% | 1015 hPa | 0 mm | - | - | - |
| 1788017412 | 26.67° C | 51% | 1015 hPa | 0 mm | - | - | - |
| 1788016512 | 26.67° C | 52% | 1015 hPa | 0 mm | - | - | - |
* Rain latest hour (hover to see other rain measurements)
** Current wind speed in m/s (hover to see current wind gust speed)